星链-35292(STARLINK-35292)

导读

STARLINK-35292是美国于2025年11月6日发射的星链卫星,隶属于SpaceX公司的星链星座项目。星链计划旨在打造全球卫星互联网星座,为全球偏远地区、海洋等网络覆盖薄弱区域提供高速互联网服务,该卫星是星链大规模组网部署中的一环,将助力扩展星座服务覆盖范围与网络容量。

基本信息
目录编号:
66322
目录名称:
STARLINK-35292
国际标识:
2025-253D
轨道中心:
EARTH
卫星名称:
星链-35292
卫星全名:
星链-35292(STARLINK-35292)
卫星状态:
在轨 (已飞行303 天)
发射日期:
2025-11-06 UTC
国别 :
美国 (US)
星等 :
--
轨道信息
数据来源 国际轨道数据
星历时间: 2026-09-05T19:33:36+0800
8小时前
查看轨道信息
半长轴: 6861.157km
偏心率: 0.0002164
轨道倾角: 43.003°
近地点辐角 288.766°
升交点赤经 276.948°
平近点角 71.296°
近地点: 481.535km
远地点: 484.505km
周期: 94.266分钟
每日圈数: 15.2759
详细信息
固有亮度:
5
最大亮度:
2.5
卫星平台:
Starlink V1.0
覆盖范围:
全球
运营商:
太空探索技术公司
运营商所在国:
美国
制造商(研发单位):
太空探索技术公司
制造商所在国:
美国
使用方式:
暂无
卫星简介
Starlink 计划是 SpaceX 推出的全球卫星互联网项目,通过发射低轨道卫星,为全球尤其是偏远地区提供高速、低延迟的互联网服务。自 2019 年起,Starlink 已部署数千颗卫星,旨在缩小全球数字鸿沟,推动互联网普及。该项目还为军事、航空等行业提供通信支持,带来广泛经济效益。
2D轨道图
3D轨道图
轨道高度分析图
轨道倾角分析图
轨道综合分析图
查看轨道综合分析图
交会数据列表
事件ID 空间交会对象 最接近时刻(TCA) 交会距离 交会风险概率(CRP) 交会风险指数(CRI) 操作
CDM_260905-230805-308606-632222
2026-09-05T
23:08:32+0000
1.035 km
极远距离
2.318909E-5 中风险 0.62
CDM_260901-074204-691206-632222
KSM1-A (46912)
2026-09-01T
07:42:49+0000
1.013 km
极远距离
5.181295E-6 低风险 0.49
CDM_260908-030105-957206-632221
2026-09-08T
03:01:30+0000
1.515 km
极远距离
4.997671E-6 低风险 0.49
CDM_260908-012705-957206-632221
2026-09-08T
01:27:21+0000
2.053 km
极远距离
2.104033E-6 低风险 0.41
CDM_260907-235305-957206-632221
2026-09-07T
23:53:12+0000
2.561 km
极远距离
1.340607E-6 低风险 0.38
CDM_260901-113804-691206-632222
KSM1-A (46912)
2026-09-01T
11:38:16+0000
1.748 km
极远距离
9.720935E-7 极低风险 0.35
CDM_260901-100404-691206-632222
KSM1-A (46912)
2026-09-01T
10:04:05+0000
2.430 km
极远距离
4.986297E-7 极低风险 0.29